Temp
54 54 54 55 55 55 55 55 55 55 56 56 56 56 56 57 56 53 52 54 47 44 49 53 55 50 52 51 45 51 50 49 49 44 45 47 47 51 51 54 53 53 51 51 54 52 51 77 77 66 68 72 77 77
54 54 54 54 54 54 54 54 55 55 55 56 56 56 56 56 56 55 50 58 54 45 48 56 57 59 57 57 52 54 49 49 48 44 44 45 46 50 48 47 58 52 56 54 58 58 66 71 69 72 74 73 76 76
54 54 54 54 54 54 54 55 55 55 55 56 56 56 56 56 55 54 51 52 50 45 49 51 51 60 65 63 65 49 54 56 53 54 47 47 41 47 44 47 49 55 58 53 57 64 65 70 74 76 76 75 79 81
54 54 54 54 54 54 54 54 54 55 55 55 56 56 56 55 55 55 51 55 50 46 40 48 65 61 68 67 65 63 59 60 56 54 50 47 44 52 47 50 48 54 55 54 56 60 64 66 67 69 74 78 79 81
54 54 54 54 54 54 54 54 54 54 55 55 55 55 55 55 54 54 55 56 54 45 42 46 55 60 64 64 63 63 61 55 54 50 48 46 51 50 53 52 49 56 51 49 49 58 58 61 68 73 73 75 76 76
53 54 54 54 54 54 54 54 54 54 54 54 54 54 54 54 54 52 48 54 53 50 42 36 55 55 60 62 60 59 59 57 56 52 50 53 57 50 45 44 53 61 62 61 56 63 63 66 69 74 71 73 76 75
54 54 54 53 54 54 54 54 54 54 54 54 53 53 53 53 51 48 45 49 53 51 41 37 44 58 59 60 59 59 61 56 55 53 51 52 53 53 49 44 54 60 61 60 63 62 60 65 65 72 73 75 75 75
53 53 53 53 53 53 53 53 53 53 53 53 53 53 52 52 51 47 54 55 55 47 44 37 41 48 57 48 47 57 55 56 54 52 53 50 52 51 43 50 57 60 61 59 61 65 65 69 70 71 73 74 69 71
53 53 53 53 53 53 53 53 53 53 53 53 53 53 51 48 44 47 53 52 50 45 38 39 36 38 54 48 49 49 54 43 53 49 50 50 47 42 49 52 54 57 57 57 62 66 68 66 68 68 70 69 65 66
53 53 54 53 53 53 53 53 53 53 52 53 52 48 43 47 54 52 46 41 41 42 40 35 44 41 51 45 45 45 47 45 41 47 52 46 44 53 56 58 57 59 61 62 58 59 63 63 64 65 67 68 66 66
53 53 53 53 53 53 53 53 53 52 52 50 47 45 48 53 47 43 38 36 35 33 36 37 40 40 51 42 41 46 41 42 37 43 45 42 43 50 57 57 59 61 62 64 64 66 68 66 63 65 66 66 66 69
53 53 53 53 52 53 53 53 52 52 53 50 49 51 50 45 42 38 35 35 33 33 36 36 38 41 44 47 43 43 39 40 35 44 39 37 48 50 52 57 59 61 63 64 66 67 69 66 65 64 65 65 65 70
53 53 52 52 53 53 53 53 53 53 52 53 47 45 43 43 35 32 32 32 32 34 35 37 38 41 40 42 41 40 34 35 40 37 36 40 45 47 47 51 57 61 63 63 64 66 65 65 66 67 64 64 65 65
52 52 52 52 52 53 54 54 54 54 52 48 46 38 42 41 41 41 41 44 46 40 38 41 41 40 42 39 40 32 36 34 32 32 33 39 42 45 48 52 54 56 61 62 63 64 63 64 63 65 65 65 66 64
52 52 52 54 55 55 54 54 54 56 55 50 48 39 42 48 51 52 52 52 50 45 43 42 42 42 39 35 34 34 33 33 33 33 34 41 45 48 53 55 57 58 57 58 60 60 61 62 61 61 62 63 63 65
52 53 61 55 55 54 54 57 57 59 54 52 48 49 53 53 54 55 53 53 58 47 47 48 42 41 39 38 36 34 33 32 36 41 45 47 48 49 51 53 54 55 55 57 58 59 60 59 59 59 61 61 62 62
52 64 54 54 53 53 56 62 65 60 58 52 50 52 55 54 53 56 58 55 60 56 49 50 43 41 46 41 40 44 42 43 47 47 49 49 49 49 51 53 53 53 53 54 55 57 57 59 60 59 57 59 60 61
58 67 58 54 53 59 70 65 69 64 53 52 53 54 54 61 58 60 61 61 59 56 52 45 48 44 42 42 43 47 49 50 51 50 50 51 51 53 52 52 54 54 54 54 54 56 57 57 56 56 57 58 59 59
57 56 54 52 54 55 66 71 70 56 55 57 60 63 60 64 64 64 64 64 62 61 56 49 45 44 45 48 48 50 51 51 50 50 51 52 52 53 53 54 54 54 54 54 54 53 54 56 56 56 56 57 56 56
51 52 53 54 56 64 66 68 71 65 60 57 60 59 60 60 64 65 64 63 61 58 53 49 48 49 50 51 53 53 53 53 52 51 50 52 54 55 54 53 53 54 54 54 55 54 55 55 57 58 59 58 57 57
60 63 58 61 66 63 69 68 66 67 66 60 65 63 60 61 61 61 60 64 59 56 52 54 55 56 61 57 57 56 56 59 55 54 53 52 55 56 55 57 57 55 57 60 58 57 58 58 60 64 63 62 62 65
69 60 67 69 68 72 68 71 66 67 63 60 59 63 57 55 56 59 63 58 56 56 60 60 60 62 60 58 59 61 60 61 61 61 58 60 59 61 61 61 60 58 60 59 61 62 63 65 66 65 64 65 64 65
63 63 67 70 65 54 49 55 51 49 48 51 62 59 58 58 57 62 55 55 57 62 62 62 61 61 60 61 61 61 62 62 62 61 60 61 60 63 63 62 62 60 60 62 63 63 62 57 61 65 65 65 61 62
56 65 65 66 61 51 65 54 55 49 48 48 52 50 50 48 57 56 50 52 56 60 58 57 62 63 63 60 61 61 61 64 65 64 64 63 62 60 61 60 61 62 62 62 61 61 61 61 58 64 65 64 62 60
52 53 56 41 63 64 62 58 59 55 53 53 54 52 48 49 46 44 43 44 52 54 55 59 62 62 60 61 62 62 61 64 62 61 63 64 63 63 61 60 59 60 63 59 57 59 58 58 59 61 63 61 61 62
41 64 48 51 50 56 62 57 58 57 58 56 54 56 52 46 41 38 40 44 46 51 54 54 56 59 60 61 60 61 61 64 62 60 62 65 63 60 57 55 54 56 62 61 58 57 57 57 58 58 60 60 53 61
50 63 62 61 59 57 54 63 64 59 55 52 52 50 48 38 37 40 46 49 49 51 53 55 58 62 61 62 63 64 64 64 60 61 65 64 63 62 60 56 54 56 61 61 60 58 57 56 57 58 58 60 60 60
56 66 60 58 59 59 58 61 58 56 56 58 51 41 40 42 43 50 51 54 54 56 57 60 65 66 64 64 65 63 61 61 61 61 63 63 61 60 59 60 60 51 57 56 58 58 57 57 57 57 58 57 57 59
56 61 61 57 54 56 61 60 59 60 63 59 51 49 49 52 57 56 59 62 64 63 62 63 63 65 64 64 63 63 60 58 53 49 49 48 50 53 57 58 59 59 59 59 50 53 54 55 56 57 58 57 56 57
54 62 62 61 56 58 61 64 60 62 63 61 59 57 57 58 61 65 64 65 63 63 64 64 63 61 59 59 58 59 61 58 55 51 48 47 49 54 55 56 56 57 57 56 57 58 50 56 54 56 54 53 52 53
61 62 65 65 59 64 65 67 66 65 63 61 59 55 54 57 61 66 66 66 67 66 63 62 61 60 58 57 56 55 54 56 54 53 53 53 53 52 53 53 54 54 55 55 55 54 53 53 52 52 51 51 50 49
65 68 67 61 61 66 66 63 61 60 60 56 52 51 47 50 52 61 66 66 64 61 56 61 59 58 60 60 59 59 50 55 53 53 52 52 51 51 53 52 53 53 54 54 53 52 51 50 49 49 48 48 48 49
71 71 70 68 64 61 66 62 58 57 56 54 52 50 52 55 52 60 66 67 63 61 61 62 63 61 59 59 58 57 53 54 48 41 40 40 39 43 51 51 50 52 52 51 50 50 49 48 48 48 48 48 48 49
MSLP
1025.75 1025.28 1024.77 1024.31 1023.77 1023.21 1022.70 1022.23 1021.71 1021.22 1020.73 1020.22 1019.71 1019.27 1018.95 1018.60 1018.33 1018.22 1017.56 1017.31 1017.58 1016.72 1014.79 1014.03 1013.45 1012.73 1011.88 1011.47 1011.25 1010.15 1009.37 1009.13 1008.68 1008.17 1007.69 1006.89 1005.45 1004.15 1002.59 1001.32 1000.65 999.87 999.70 999.02 997.94 996.78 995.79 993.94 993.63 994.36 994.97 994.44 993.77 993.41
1025.17 1024.63 1024.11 1023.79 1023.28 1022.69 1022.22 1021.74 1021.18 1020.67 1020.07 1019.58 1019.27 1018.97 1018.63 1018.37 1018.22 1018.09 1017.32 1016.61 1016.57 1016.99 1014.80 1013.74 1013.23 1012.68 1012.24 1011.60 1011.39 1010.68 1010.47 1010.42 1010.67 1010.37 1010.16 1009.15 1007.39 1005.48 1004.40 1002.79 1001.12 1001.11 1000.56 999.83 998.25 997.03 995.85 995.35 995.38 995.10 995.17 995.15 994.65 994.18
1024.53 1023.95 1023.49 1023.09 1022.58 1022.06 1021.61 1021.19 1020.59 1020.13 1019.54 1019.01 1018.69 1018.42 1018.11 1017.94 1017.90 1017.87 1017.33 1016.68 1016.82 1016.39 1014.62 1013.26 1011.83 1010.85 1010.93 1010.84 1010.87 1010.87 1010.25 1010.14 1010.26 1010.83 1010.92 1009.99 1008.98 1007.96 1006.43 1005.21 1004.02 1002.60 1001.84 1000.92 999.76 998.01 997.33 996.19 995.83 995.64 995.64 995.37 994.97 994.80
1023.79 1023.21 1022.72 1022.31 1021.84 1021.25 1020.91 1020.44 1019.92 1019.46 1018.96 1018.45 1018.02 1017.70 1017.54 1017.36 1017.35 1017.36 1016.98 1016.23 1016.65 1016.35 1015.00 1011.86 1010.35 1009.97 1009.53 1009.21 1009.52 1009.80 1009.85 1010.01 1010.23 1010.69 1010.73 1010.19 1009.75 1008.73 1007.63 1006.83 1006.23 1005.43 1004.17 1002.45 1000.81 999.82 998.18 997.39 998.27 997.90 996.80 995.55 995.09 994.92
1022.95 1022.38 1021.86 1021.50 1020.97 1020.56 1020.19 1019.58 1019.14 1018.79 1018.29 1017.83 1017.36 1017.09 1016.98 1016.91 1016.87 1016.80 1016.30 1015.70 1015.93 1016.41 1014.67 1012.51 1011.19 1009.75 1009.32 1008.95 1008.66 1008.84 1009.18 1009.54 1009.85 1010.01 1009.93 1009.67 1009.33 1009.11 1007.93 1007.21 1005.65 1005.20 1004.79 1004.28 1003.27 1002.90 1002.13 1000.28 999.56 998.71 997.79 997.10 996.28 995.97
1022.09 1021.53 1020.99 1020.61 1020.17 1019.76 1019.41 1018.71 1018.36 1018.06 1017.59 1017.08 1016.75 1016.47 1016.39 1016.43 1016.41 1016.48 1015.36 1014.79 1015.16 1015.26 1015.47 1013.89 1010.76 1009.31 1008.60 1008.01 1008.09 1008.25 1008.38 1008.83 1009.17 1009.28 1009.14 1008.87 1008.47 1008.61 1007.90 1006.45 1005.31 1005.10 1004.49 1004.36 1003.83 1003.05 1002.26 1001.19 999.99 998.89 998.54 997.79 996.84 996.36
1021.29 1020.69 1020.13 1019.69 1019.37 1018.92 1018.48 1017.94 1017.66 1017.17 1016.81 1016.40 1016.08 1015.74 1015.62 1015.76 1016.04 1015.83 1015.52 1015.51 1015.31 1015.65 1015.61 1014.25 1011.15 1008.09 1007.90 1007.67 1007.70 1007.67 1007.83 1008.02 1008.37 1008.53 1008.47 1008.37 1008.02 1007.67 1007.07 1005.81 1005.11 1005.39 1004.77 1004.56 1003.96 1003.27 1002.13 1000.79 1000.26 999.14 998.83 997.96 997.18 995.89
1020.56 1019.98 1019.37 1018.87 1018.56 1018.17 1017.71 1017.17 1016.76 1016.41 1016.05 1015.76 1015.37 1014.96 1014.84 1015.01 1015.26 1015.43 1014.81 1014.61 1014.95 1015.65 1015.70 1014.25 1011.61 1009.27 1008.34 1007.93 1007.73 1007.67 1007.42 1007.72 1007.66 1007.74 1007.66 1007.46 1007.32 1007.11 1005.93 1005.02 1005.03 1004.68 1004.46 1003.99 1003.45 1002.59 1002.05 1000.84 1000.15 999.54 998.97 998.58 997.82 996.99
1019.71 1019.16 1018.62 1018.17 1017.89 1017.46 1016.96 1016.53 1016.20 1015.87 1015.61 1015.31 1014.80 1014.51 1014.79 1015.01 1014.99 1014.51 1014.51 1014.75 1014.79 1015.78 1015.10 1014.03 1012.24 1009.91 1008.81 1008.62 1008.51 1008.29 1007.66 1008.03 1007.76 1006.93 1006.83 1007.21 1006.26 1005.35 1003.67 1004.20 1004.18 1003.95 1003.84 1003.42 1002.81 1002.12 1001.33 1000.91 1000.18 999.68 999.37 999.24 999.29 998.60
1019.03 1018.48 1017.99 1017.57 1017.22 1016.80 1016.31 1015.81 1015.65 1015.45 1015.16 1015.00 1014.94 1014.81 1014.59 1014.39 1014.25 1014.71 1014.85 1015.14 1015.30 1015.38 1015.10 1013.80 1012.35 1010.48 1009.50 1009.45 1008.89 1008.91 1008.64 1008.23 1007.42 1006.76 1006.68 1005.98 1004.49 1003.45 1003.56 1003.23 1003.16 1003.05 1003.07 1002.70 1002.68 1001.87 1001.15 1000.57 1000.16 999.89 999.57 999.61 999.33 998.79
1018.52 1017.92 1017.45 1016.98 1016.58 1016.20 1015.67 1015.38 1015.39 1015.19 1014.86 1014.86 1014.66 1014.45 1014.47 1014.38 1014.50 1014.33 1014.33 1014.71 1014.91 1014.72 1014.22 1012.91 1012.14 1011.05 1010.32 1009.89 1009.75 1009.51 1009.37 1008.73 1007.71 1006.23 1005.71 1004.69 1002.75 1002.20 1001.94 1002.25 1002.04 1001.94 1001.72 1001.24 1001.19 1000.84 1000.15 999.87 999.99 999.85 999.51 999.50 999.36 998.64
1018.07 1017.43 1016.91 1016.43 1016.01 1015.67 1015.23 1015.09 1015.01 1014.83 1014.28 1014.63 1014.65 1014.20 1014.19 1014.27 1013.92 1013.93 1013.26 1013.63 1013.78 1013.21 1012.69 1012.26 1011.67 1011.31 1010.67 1010.32 1010.08 1010.03 1009.64 1009.18 1007.70 1006.85 1006.16 1003.85 1001.79 1001.94 1001.19 1000.68 999.80 1000.52 1000.47 1000.17 1000.22 1000.13 999.91 999.70 999.82 1000.00 999.70 999.42 999.08 998.60
1017.59 1016.96 1016.33 1015.82 1015.31 1015.00 1014.73 1014.56 1014.20 1014.42 1014.45 1014.10 1014.26 1013.85 1013.62 1013.43 1012.91 1012.15 1011.37 1011.33 1011.81 1012.10 1011.91 1011.52 1011.23 1011.03 1011.33 1011.01 1010.47 1010.29 1009.84 1008.69 1008.15 1006.91 1005.40 1003.55 1002.53 1001.59 1001.27 1000.55 999.03 999.10 999.59 999.80 999.77 999.68 999.12 999.27 999.44 999.08 999.55 999.09 998.41 999.12
1017.03 1016.37 1015.70 1015.10 1014.61 1014.36 1014.31 1013.91 1014.04 1014.04 1014.26 1013.73 1013.22 1012.53 1012.64 1012.01 1011.16 1009.93 1009.51 1008.64 1008.95 1009.82 1010.59 1010.76 1010.72 1010.54 1010.39 1010.40 1010.11 1010.03 1009.38 1009.02 1007.87 1006.62 1005.14 1003.90 1003.07 1001.64 1000.57 999.66 999.55 999.06 998.57 998.99 999.16 999.01 999.18 999.61 999.53 999.51 999.12 999.07 999.51 999.98
1016.29 1015.57 1014.92 1014.27 1013.89 1013.67 1013.67 1013.69 1013.55 1013.50 1013.09 1013.07 1013.06 1012.81 1012.19 1011.28 1009.90 1008.53 1007.76 1007.33 1007.77 1008.89 1009.42 1009.89 1009.91 1009.89 1009.83 1009.99 1009.90 1009.56 1008.97 1008.07 1007.20 1006.73 1005.79 1004.01 1001.41 999.07 998.25 998.36 998.87 999.10 999.23 998.98 998.76 999.30 999.66 999.77 1000.55 1000.07 999.95 999.66 999.79 1000.13
1015.67 1014.57 1014.17 1013.88 1013.40 1012.81 1012.89 1012.67 1013.31 1012.69 1012.71 1012.99 1012.40 1012.15 1011.03 1009.99 1008.85 1007.85 1007.39 1007.21 1007.01 1008.26 1008.54 1008.07 1008.47 1008.62 1008.69 1008.60 1008.61 1008.28 1007.87 1007.35 1006.77 1006.19 1005.11 1003.59 1001.24 1000.25 999.89 999.85 1000.25 1000.39 1000.33 1000.41 1000.48 1000.49 1000.60 1001.17 1001.06 1001.15 1000.91 1001.12 1001.25 1001.84
1015.41 1014.17 1013.89 1013.41 1012.76 1011.76 1011.21 1011.83 1011.41 1011.43 1011.90 1012.33 1011.53 1011.04 1010.34 1009.58 1009.04 1008.32 1007.76 1007.53 1007.07 1006.75 1007.23 1007.34 1007.84 1008.07 1007.91 1007.77 1007.20 1006.39 1006.29 1006.68 1006.06 1006.10 1005.38 1004.71 1003.85 1002.77 1001.97 1001.72 1001.36 1001.25 1001.52 1001.33 1001.58 1001.64 1001.82 1001.94 1001.83 1001.58 1002.26 1003.11 1002.24 1002.34
1014.62 1013.15 1013.30 1013.41 1013.26 1011.89 1010.73 1010.75 1010.07 1010.86 1012.12 1011.48 1011.34 1011.31 1009.81 1009.01 1008.61 1008.17 1007.73 1007.39 1007.11 1007.19 1007.43 1008.36 1008.41 1007.96 1007.82 1007.67 1007.31 1007.16 1006.78 1006.47 1006.38 1006.50 1006.31 1005.83 1005.18 1004.78 1004.06 1003.34 1003.26 1003.01 1002.94 1002.86 1002.93 1003.15 1002.69 1002.41 1003.11 1003.45 1003.40 1003.08 1002.41 1002.85
1014.70 1014.18 1013.65 1013.52 1013.91 1013.29 1010.86 1009.61 1009.69 1010.17 1010.77 1011.09 1010.77 1010.40 1009.91 1009.25 1008.95 1008.51 1008.29 1007.78 1007.66 1007.66 1007.78 1008.42 1008.79 1008.89 1008.93 1009.00 1008.38 1007.96 1007.50 1007.16 1007.15 1006.90 1006.73 1006.04 1006.01 1005.82 1005.65 1005.31 1005.10 1005.01 1004.78 1004.81 1004.79 1004.45 1004.00 1004.53 1004.93 1004.89 1004.55 1003.14 1004.67 1004.79
1013.81 1013.22 1012.99 1013.09 1013.41 1012.47 1010.47 1009.59 1009.44 1009.76 1009.95 1010.37 1010.26 1010.37 1010.22 1010.12 1009.61 1009.20 1009.05 1008.84 1008.52 1008.39 1008.70 1009.42 1009.97 1009.96 1009.51 1009.31 1008.76 1008.13 1007.91 1007.55 1007.37 1007.25 1007.15 1007.06 1006.46 1006.32 1006.25 1006.15 1006.11 1005.85 1005.79 1005.69 1005.24 1005.42 1004.98 1004.49 1004.84 1005.77 1005.38 1005.46 1005.34 1004.97
1012.97 1012.50 1012.26 1012.35 1012.15 1011.80 1010.65 1009.80 1009.68 1009.44 1009.79 1010.25 1009.90 1009.99 1010.42 1010.35 1010.04 1009.86 1009.82 1009.58 1009.30 1009.37 1009.80 1010.03 1009.88 1009.70 1009.22 1009.23 1009.00 1008.48 1008.21 1007.72 1007.51 1007.26 1007.13 1007.07 1006.83 1006.57 1006.26 1006.53 1006.41 1005.87 1005.61 1005.27 1005.18 1005.24 1005.35 1005.26 1005.07 1004.84 1004.42 1003.81 1003.74 1005.04
1012.44 1012.20 1012.09 1011.41 1011.23 1010.52 1010.77 1010.33 1010.49 1010.19 1010.02 1009.50 1009.67 1009.90 1010.41 1010.85 1010.87 1010.61 1010.71 1010.62 1010.67 1010.95 1010.80 1010.46 1010.37 1009.97 1009.81 1009.69 1009.44 1009.09 1008.71 1008.16 1007.89 1007.71 1007.43 1007.17 1007.11 1007.00 1007.03 1007.03 1006.90 1006.65 1006.45 1006.50 1006.21 1005.95 1005.70 1005.30 1004.66 1004.21 1004.22 1004.29 1004.98 1005.60
1012.66 1012.65 1012.02 1011.12 1010.96 1011.21 1012.00 1012.46 1012.79 1012.25 1011.65 1011.17 1010.00 1009.92 1010.31 1010.97 1011.22 1010.95 1011.81 1012.61 1012.46 1012.06 1011.71 1011.17 1010.60 1010.34 1010.23 1010.07 1009.71 1009.55 1009.19 1008.66 1008.54 1008.48 1008.35 1008.06 1007.69 1007.62 1007.87 1007.99 1007.99 1007.78 1007.57 1007.36 1007.07 1006.88 1006.69 1006.34 1005.85 1005.54 1005.35 1005.56 1005.88 1006.04
1013.05 1012.43 1011.52 1010.98 1011.13 1011.12 1010.79 1012.02 1012.61 1013.07 1012.58 1011.88 1011.33 1011.60 1011.65 1012.81 1011.61 1012.24 1013.80 1014.62 1014.24 1013.52 1013.13 1012.57 1011.55 1011.09 1010.78 1010.56 1010.55 1010.57 1010.29 1009.73 1009.29 1009.23 1008.85 1008.74 1008.70 1009.13 1009.15 1009.33 1009.24 1008.99 1008.85 1008.81 1008.53 1008.19 1008.08 1007.76 1007.38 1007.22 1006.27 1006.17 1006.40 1006.30
1013.43 1012.42 1011.82 1012.07 1011.10 1010.25 1010.29 1010.89 1011.05 1011.38 1011.41 1011.44 1011.59 1012.28 1013.51 1014.22 1014.48 1014.81 1016.18 1016.99 1015.99 1015.33 1014.65 1013.49 1012.61 1012.02 1011.75 1011.47 1011.25 1011.24 1011.05 1010.80 1010.62 1010.12 1009.91 1009.71 1009.70 1009.83 1009.96 1010.34 1010.51 1010.34 1009.99 1009.91 1009.73 1009.44 1009.45 1009.25 1008.76 1008.25 1007.73 1007.46 1007.35 1007.18
1012.89 1011.84 1012.25 1012.97 1013.33 1011.83 1010.82 1010.69 1011.05 1011.23 1011.41 1011.65 1012.63 1013.24 1014.29 1015.33 1016.61 1017.67 1018.39 1018.46 1017.86 1016.68 1015.53 1014.91 1014.13 1013.04 1012.59 1012.37 1012.17 1011.96 1011.93 1011.71 1011.66 1011.34 1010.93 1010.68 1010.81 1011.04 1011.33 1011.61 1011.65 1011.43 1011.04 1010.99 1010.83 1010.53 1010.55 1010.41 1009.94 1009.43 1008.94 1008.67 1008.50 1008.14
1012.10 1011.10 1011.59 1012.22 1012.49 1012.01 1011.57 1011.05 1011.34 1011.68 1011.88 1012.63 1013.54 1014.33 1015.11 1016.70 1018.05 1018.93 1018.71 1018.30 1017.87 1017.14 1016.45 1015.57 1014.56 1013.49 1013.33 1013.16 1012.95 1012.91 1012.99 1012.91 1013.01 1012.73 1011.82 1012.15 1012.34 1012.51 1012.54 1012.67 1012.63 1012.67 1012.10 1011.98 1011.84 1011.67 1011.56 1011.22 1010.91 1010.47 1009.94 1009.44 1009.16 1009.04
1012.64 1011.41 1011.09 1011.75 1011.66 1012.06 1011.46 1011.26 1011.75 1012.05 1012.41 1013.21 1014.53 1015.75 1016.72 1017.38 1017.98 1018.05 1018.04 1017.70 1017.54 1016.82 1016.03 1015.16 1014.28 1013.90 1013.91 1013.84 1013.78 1013.93 1014.13 1014.29 1014.28 1014.03 1013.52 1013.57 1013.92 1014.01 1013.82 1013.64 1013.47 1013.13 1012.91 1012.97 1012.73 1012.57 1012.45 1012.08 1011.81 1011.41 1010.91 1010.53 1010.41 1010.18
1012.95 1011.80 1012.13 1011.91 1012.14 1012.21 1011.55 1011.73 1012.26 1012.84 1013.06 1013.58 1014.67 1015.68 1016.73 1017.41 1017.23 1017.29 1016.98 1016.63 1015.99 1015.34 1014.92 1014.54 1014.56 1014.55 1014.65 1014.55 1014.63 1014.86 1015.13 1015.46 1015.61 1015.52 1015.30 1015.35 1015.34 1015.42 1015.30 1014.95 1014.51 1014.12 1013.80 1013.44 1013.09 1013.03 1012.87 1012.62 1012.61 1012.24 1011.76 1011.54 1011.55 1011.50
1012.51 1011.87 1011.28 1011.67 1012.51 1012.07 1012.16 1012.23 1013.07 1013.62 1013.95 1014.42 1015.23 1016.15 1016.66 1016.89 1016.67 1016.44 1016.16 1015.64 1015.24 1014.99 1014.99 1014.92 1015.09 1015.33 1015.60 1015.53 1015.62 1015.70 1015.79 1016.30 1016.85 1017.25 1017.15 1017.13 1017.05 1016.82 1016.34 1015.84 1015.37 1015.05 1014.71 1014.32 1013.79 1013.29 1013.13 1012.89 1012.68 1012.59 1012.52 1012.51 1012.59 1012.58
1011.18 1011.07 1010.50 1010.59 1011.29 1011.39 1011.97 1012.51 1013.11 1013.54 1014.00 1014.64 1015.34 1016.11 1016.87 1016.98 1016.48 1015.99 1015.61 1015.29 1015.23 1015.31 1015.49 1015.48 1015.69 1016.14 1016.43 1016.45 1016.68 1016.66 1016.85 1017.42 1017.84 1018.18 1018.21 1018.05 1017.92 1017.70 1017.25 1016.85 1016.49 1016.03 1015.47 1014.96 1014.42 1014.21 1013.97 1013.80 1013.73 1013.71 1013.73 1013.79 1013.94 1014.10
1010.07 1009.52 1009.37 1009.93 1010.75 1011.32 1011.89 1012.41 1012.97 1013.35 1014.18 1015.05 1016.12 1016.83 1017.61 1017.27 1016.50 1015.80 1015.72 1015.63 1015.57 1015.75 1016.14 1016.11 1016.13 1016.55 1016.98 1017.17 1017.51 1017.50 1017.52 1018.06 1018.49 1018.69 1018.74 1018.68 1018.63 1018.38 1017.91 1017.65 1017.21 1016.61 1016.01 1015.46 1015.36 1015.35 1015.27 1015.09 1015.06 1015.02 1015.01 1014.97 1014.93 1014.82
1008.45 1008.74 1008.91 1008.96 1009.69 1010.29 1010.69 1011.48 1011.99 1012.54 1013.49 1014.46 1015.54 1016.55 1016.71 1016.45 1016.27 1016.08 1016.06 1016.03 1016.25 1016.53 1016.74 1016.75 1016.71 1017.09 1017.47 1017.70 1017.92 1017.92 1018.05 1018.41 1018.83 1019.24 1019.26 1019.22 1019.22 1018.85 1018.56 1018.36 1017.81 1017.07 1016.64 1016.49 1016.37 1016.31 1016.20 1016.07 1015.98 1015.90 1015.79 1015.59 1015.32 1015.09
Wind_Speed
18 17 18 19 19 18 18 19 19 19 20 17 17 16 13 13 10 4 5 5 4 4 12 16 17 15 12 9 5 9 9 9 6 7 5 4 4 6 6 8 8 3 4 2 2 3 3 8 10 6 7 7 7 8
18 18 18 18 19 19 18 18 18 18 18 19 17 17 15 11 9 7 5 4 2 4 9 16 14 17 16 15 11 9 5 0 2 4 4 5 5 6 8 11 5 5 3 3 5 5 4 5 4 5 5 4 8 8
18 19 19 18 18 19 19 18 19 19 18 19 17 15 15 11 8 7 6 3 2 3 9 11 12 16 16 16 13 10 7 4 3 3 3 3 4 5 5 6 8 13 16 5 9 9 13 9 8 10 7 6 8 8
19 20 19 19 19 19 19 19 19 19 19 19 19 15 14 13 8 7 5 3 2 3 5 7 11 11 10 11 16 14 13 10 3 3 5 3 4 4 3 8 9 6 14 8 6 17 17 14 19 19 21 11 8 7
21 20 20 19 20 19 19 20 20 19 19 19 18 16 13 12 9 6 7 6 5 3 5 9 19 19 15 13 12 14 12 7 6 6 6 8 7 7 9 9 11 4 1 4 4 14 8 17 19 20 15 15 15 11
21 21 21 20 20 20 19 21 20 19 19 19 16 14 13 11 7 4 3 3 3 5 2 5 7 15 14 7 7 11 9 9 7 7 7 8 11 5 6 5 3 10 8 12 11 14 16 17 22 15 16 18 18 15
22 22 21 21 20 20 20 20 19 19 18 17 16 15 13 10 4 4 1 1 3 2 1 5 6 2 7 8 8 7 11 5 6 7 9 9 10 7 11 16 15 11 15 13 18 18 19 15 15 14 16 17 19 24
22 21 21 21 20 19 19 19 19 18 17 17 17 14 10 9 4 3 3 6 5 1 2 4 6 5 4 3 3 4 5 7 8 8 7 9 7 7 10 10 11 11 13 17 18 20 18 16 13 11 14 14 15 11
21 21 21 21 20 19 18 18 18 17 16 16 13 3 2 1 3 2 8 8 2 2 3 3 3 3 2 1 2 3 2 2 4 8 10 5 10 11 17 19 18 11 10 14 16 18 16 16 13 11 13 14 12 15
19 20 21 19 17 17 16 18 16 15 14 11 3 1 2 3 14 9 1 1 2 1 4 4 4 6 5 4 2 2 2 4 4 7 3 11 17 23 21 16 13 12 19 20 18 18 13 11 8 10 13 9 9 18
19 20 19 18 17 18 18 16 13 13 4 2 2 2 2 6 1 2 3 4 4 4 4 4 7 9 5 5 3 0 1 3 4 4 6 5 13 20 24 21 21 18 22 22 15 16 11 9 6 11 12 8 10 8
19 20 19 18 18 16 16 14 10 4 1 2 1 2 2 2 2 3 3 1 4 4 3 3 3 3 2 3 2 1 3 3 6 4 4 6 3 9 11 14 25 24 21 19 17 15 13 6 6 8 10 8 8 6
20 19 20 19 18 16 15 12 9 8 7 2 2 3 2 1 3 3 4 3 3 4 5 5 3 2 2 2 2 2 4 5 4 5 5 5 9 16 15 16 8 18 22 19 15 8 6 7 14 14 6 3 12 7
18 19 21 19 18 16 12 11 5 2 4 1 3 5 3 4 4 5 5 9 1 5 6 3 1 3 3 5 1 3 2 2 3 4 5 4 14 19 21 12 8 9 5 8 4 5 7 5 5 4 11 10 11 13
20 19 19 16 12 13 9 6 6 4 2 3 4 6 4 5 9 8 5 4 4 6 7 3 2 2 1 1 2 3 3 4 2 3 5 10 19 13 7 9 9 7 6 6 4 10 8 9 7 9 11 11 11 9
21 20 2 10 14 16 9 5 6 3 1 2 2 4 6 6 10 12 11 12 8 6 4 4 3 3 4 4 1 2 4 4 3 3 5 9 22 20 17 17 15 13 11 11 10 11 13 9 13 12 13 12 11 10
17 3 2 12 20 23 6 4 6 5 5 3 4 3 4 7 8 10 10 6 7 9 8 5 6 6 4 4 5 3 5 6 1 5 4 7 14 17 18 18 18 18 17 16 14 13 12 10 9 14 13 8 10 10
6 4 15 16 15 7 4 4 1 2 2 4 3 10 7 6 9 9 7 8 8 9 3 4 4 5 5 7 7 8 8 6 3 5 3 6 9 12 13 15 16 17 15 15 13 10 11 15 12 9 11 3 10 10
12 14 20 19 7 4 4 1 1 1 4 1 4 2 2 6 9 8 9 7 4 2 3 4 6 6 6 6 10 9 7 6 4 2 3 4 4 6 7 7 9 12 13 8 6 5 8 9 8 5 2 9 6 4
21 19 18 11 3 4 4 2 2 2 2 2 1 5 5 5 7 8 9 10 6 6 9 7 8 6 7 8 5 5 6 4 5 6 4 5 7 6 0 1 3 4 3 3 3 3 2 5 2 3 5 7 6 1
6 2 6 6 6 5 3 2 2 1 1 3 3 5 4 3 6 8 9 8 7 10 9 5 5 6 9 9 8 4 7 8 10 6 4 5 2 8 6 6 7 6 6 9 9 3 4 2 3 7 6 7 7 8
2 5 3 4 3 1 2 1 4 6 4 4 2 2 4 3 4 6 7 8 9 6 9 6 7 8 9 10 10 14 6 9 8 9 10 9 6 8 9 9 7 5 7 8 9 10 8 9 10 7 6 8 9 8
8 2 4 3 2 4 4 7 2 2 6 10 6 4 3 3 1 2 4 6 6 9 10 9 7 7 7 9 13 16 17 8 7 6 5 5 5 6 10 12 12 11 12 12 10 10 11 13 9 8 6 9 4 7
1 4 5 3 4 4 4 4 4 3 4 2 3 3 5 7 5 6 5 7 9 10 12 15 9 8 7 9 10 10 12 11 9 9 8 9 10 11 11 11 11 11 10 10 11 11 12 13 14 12 8 7 9 9
3 7 4 8 7 2 2 4 2 3 1 4 2 4 3 2 4 5 5 7 10 10 10 11 10 9 9 9 8 8 11 11 11 9 9 8 9 9 9 10 10 10 10 10 12 11 12 12 12 13 12 10 11 6
1 2 5 5 2 10 7 7 8 9 6 5 5 4 2 4 5 5 3 5 5 8 9 9 11 9 8 9 8 9 9 10 10 10 8 9 10 9 10 10 9 10 9 10 10 11 13 12 12 15 13 14 13 13
3 3 3 4 2 1 4 6 6 7 5 5 4 5 5 6 5 1 4 3 3 4 9 9 9 7 8 9 8 9 10 11 12 11 8 11 11 11 10 9 10 7 8 9 9 10 11 12 11 11 11 10 10 8
7 10 12 10 3 2 3 5 5 7 6 4 4 5 4 3 2 1 3 3 6 9 9 10 4 8 9 8 9 9 10 11 12 12 9 11 12 12 13 11 11 14 5 4 6 7 6 7 9 10 10 11 11 13
7 4 2 4 5 3 3 4 4 3 3 3 3 3 4 3 2 3 4 5 8 8 4 6 9 8 9 8 8 8 9 9 12 17 18 13 12 11 10 10 9 9 9 10 6 3 6 5 6 6 9 9 9 8
5 3 3 6 5 2 4 4 6 6 7 7 6 7 5 4 2 3 5 5 6 7 8 7 8 9 8 8 8 9 8 9 9 9 9 9 9 8 8 9 9 9 9 10 10 10 9 9 10 11 13 12 11 10
2 2 4 5 2 5 6 7 7 7 8 7 5 6 4 3 3 3 5 3 6 7 8 8 8 8 8 9 8 8 7 8 11 12 9 7 8 8 9 9 10 9 9 9 8 10 11 9 9 10 10 11 13 11
6 2 6 4 4 6 8 6 4 4 5 4 4 3 2 3 1 2 6 6 6 7 8 9 7 8 8 7 8 7 9 7 7 7 9 7 7 8 8 8 8 8 9 9 11 10 11 11 9 9 9 10 9 9
3 6 5 3 6 8 7 6 4 4 4 4 4 4 4 3 3 3 4 6 7 7 7 7 7 8 8 8 9 7 7 6 8 8 4 5 5 6 6 7 9 9 10 10 10 10 12 12 9 9 7 7 6 7
Wind_Direction
307 309 310 313 314 314 313 315 316 314 313 312 322 331 324 332 330 309 276 290 221 277 284 281 289 298 311 308 298 325 349 13 350 360 340 278 275 286 301 304 303 231 166 218 285 178 248 18 40 75 227 296 42 13
304 305 306 311 310 308 309 310 311 312 311 309 310 315 318 316 316 332 270 282 245 219 280 314 287 280 279 285 297 305 287 42 331 3 8 314 330 331 334 283 318 263 283 250 185 210 299 38 78 340 42 15 360 22
300 302 304 305 305 304 305 306 305 307 308 310 307 305 315 302 299 287 283 295 303 262 276 249 260 262 239 243 258 278 273 286 153 101 268 289 291 348 327 15 330 344 18 337 11 6 328 319 358 338 350 356 344 347
296 298 300 302 301 300 302 301 302 303 305 305 306 294 299 308 287 288 278 263 186 288 280 282 274 295 288 235 224 235 259 279 169 220 250 264 284 274 296 301 300 303 321 305 287 13 342 17 355 339 336 315 320 324
293 294 295 297 296 299 301 299 300 302 303 306 305 300 288 298 280 278 263 249 200 223 296 308 311 288 272 268 244 230 233 232 236 241 233 247 242 265 277 286 273 260 307 14 329 329 318 319 328 322 340 341 346 343
293 294 295 296 297 299 300 298 301 303 303 303 300 290 288 279 272 271 289 56 13 204 296 297 333 290 277 269 244 249 222 217 226 238 250 249 257 239 270 264 267 293 319 348 309 309 298 303 308 327 334 326 328 328
296 297 298 298 299 299 300 298 301 300 300 300 294 282 268 260 207 223 291 269 22 42 237 275 256 225 240 215 229 234 231 219 213 235 242 258 262 254 252 254 268 268 280 305 293 299 300 305 304 316 321 321 321 312
304 304 302 302 302 301 300 298 298 299 301 299 295 289 265 247 206 270 280 252 178 352 272 268 279 284 22 284 180 287 221 218 226 232 237 244 257 252 259 251 268 262 266 256 264 270 273 284 299 313 319 342 338 304
313 312 311 312 312 307 302 301 299 302 307 308 314 275 91 122 196 203 111 64 30 166 243 244 258 296 244 262 227 299 324 135 260 237 228 232 243 234 229 231 248 254 267 282 285 287 284 296 302 316 325 341 332 330
313 316 317 314 314 310 303 302 303 305 306 310 234 239 232 202 128 128 87 81 90 217 226 247 257 255 348 3 233 178 226 228 229 221 224 230 243 251 255 253 245 240 235 250 259 260 265 276 299 316 316 325 288 285
318 321 321 318 314 313 305 302 310 315 320 222 215 259 83 167 217 191 205 190 162 225 221 241 232 251 287 261 276 157 274 281 254 236 214 235 244 241 242 237 238 237 240 251 253 268 262 283 329 311 307 317 307 309
324 322 321 316 309 307 300 304 309 283 359 60 298 250 176 222 226 263 240 176 212 234 219 222 214 214 295 327 209 185 247 213 244 344 235 249 247 345 338 269 223 224 237 239 241 254 258 301 297 290 285 275 248 131
324 323 319 311 307 304 299 299 282 260 293 205 222 250 197 171 278 215 287 222 239 190 216 219 178 163 214 267 215 244 243 243 341 230 229 246 325 315 307 290 300 218 223 239 253 255 323 312 287 252 171 114 84 71
319 321 315 305 300 295 300 298 303 202 235 268 284 317 2 315 267 244 265 300 160 186 171 178 137 224 192 190 75 243 244 296 271 258 262 303 290 275 272 233 233 260 185 191 199 244 243 236 112 105 114 103 107 107
320 314 309 295 283 294 288 290 206 200 276 8 338 342 337 288 295 316 328 352 68 146 155 166 167 209 52 259 206 287 266 263 254 292 280 296 292 300 131 156 160 128 91 56 77 105 94 96 116 82 61 77 65 59
321 308 321 290 298 303 306 222 166 236 83 50 265 329 310 348 9 18 13 12 21 165 225 199 146 206 178 208 250 279 310 331 291 278 278 342 9 32 54 68 81 78 65 76 78 90 91 85 86 84 68 58 71 69
318 241 328 347 336 313 278 189 173 240 73 317 296 211 328 21 20 32 30 6 349 11 5 2 7 2 313 349 309 314 43 28 353 36 343 10 41 32 34 53 56 60 61 58 61 59 69 74 69 73 65 62 40 57
239 344 353 342 343 295 205 212 298 87 60 288 1 18 322 26 32 22 16 29 26 11 10 11 319 348 3 6 27 6 35 38 68 68 28 21 19 47 54 48 64 55 53 50 45 46 76 64 55 49 58 20 65 47
290 297 299 303 321 302 282 137 34 308 183 208 316 282 341 33 37 30 21 13 19 0 0 22 26 8 31 11 25 25 33 40 47 29 359 330 10 27 40 48 64 75 75 35 23 25 44 71 96 91 25 48 48 24
286 268 262 270 220 264 272 81 141 309 7 209 193 82 56 38 45 45 39 29 17 17 36 41 47 48 39 28 21 27 36 30 62 61 35 36 37 56 170 114 53 52 87 148 106 128 6 17 21 187 162 158 142 80
302 206 256 180 198 222 297 312 287 46 24 16 310 96 86 54 37 44 44 23 39 43 44 37 47 46 33 38 21 349 1 25 25 30 28 37 11 73 52 66 77 22 39 46 57 80 87 31 232 188 173 151 148 172
322 340 294 190 273 315 260 134 337 332 283 204 185 109 110 114 96 65 38 36 46 35 18 33 34 30 39 31 21 18 358 56 49 31 20 36 39 55 52 43 45 16 32 36 29 25 27 46 24 21 39 53 49 35
287 206 233 249 325 39 265 78 228 21 332 328 303 148 162 115 66 21 74 30 16 17 15 6 6 42 31 31 25 19 8 21 49 37 16 10 4 39 56 47 38 28 30 25 22 21 22 12 41 22 28 59 27 44
56 280 304 305 148 232 165 164 134 177 241 248 273 30 13 23 298 88 79 25 2 9 1 347 6 20 24 33 39 23 8 8 20 28 26 32 39 56 51 46 33 23 26 25 18 18 22 15 15 3 354 40 63 54
343 294 103 348 302 273 43 347 209 226 195 192 7 53 48 38 18 48 41 350 346 354 342 333 11 14 24 19 31 34 22 18 10 21 26 34 33 37 50 54 35 17 25 27 14 18 24 13 0 360 7 16 12 75
52 160 125 141 311 306 6 29 14 8 10 37 34 35 97 54 52 41 19 312 313 322 328 352 339 6 22 16 18 25 30 29 13 3 6 47 39 38 49 45 29 10 19 27 11 21 19 8 360 357 358 3 27 26
259 168 180 111 154 16 321 38 25 20 28 31 26 22 41 61 48 304 262 255 287 297 308 303 302 24 21 13 21 30 33 31 17 354 37 53 45 36 39 42 29 2 24 21 9 34 11 1 356 350 355 354 6 28
353 323 52 106 160 173 282 52 19 9 31 57 83 42 75 59 55 246 256 276 281 285 285 291 311 42 29 22 29 47 42 31 15 7 29 48 41 29 18 12 7 358 25 21 9 45 1 7 352 350 352 21 22 22
308 300 62 57 50 319 342 44 51 41 31 94 99 91 103 207 167 226 261 260 267 264 276 28 38 36 24 24 32 60 60 47 35 28 25 15 13 12 4 351 350 2 1 353 30 32 339 350 2 1 24 32 30 15
227 288 289 101 43 332 39 77 101 81 65 76 90 109 124 144 202 259 278 304 319 33 28 29 48 43 21 18 26 25 56 71 64 41 24 16 4 352 348 351 3 3 360 349 335 342 24 10 24 35 31 32 26 19
208 261 245 93 121 112 122 115 129 135 126 121 86 81 75 18 289 281 294 350 23 40 30 19 52 58 29 30 25 20 33 70 65 56 36 23 15 7 353 10 1 348 341 334 10 29 24 23 30 20 26 27 32 31
200 280 2 113 126 131 136 154 174 166 136 129 102 89 103 248 263 323 38 13 24 40 30 14 39 65 53 46 32 11 48 80 71 59 50 46 31 8 5 12 351 340 339 19 30 34 25 28 35 34 34 35 28 25
108 72 2 135 154 177 173 159 181 139 134 156 124 164 187 156 71 40 40 46 59 53 30 14 45 79 79 63 44 9 79 105 119 120 120 72 54 33 30 9 348 354 27 30 35 39 38 38 42 43 37 17 4 359